❰ Current Conditions

NWS Regional Weather Roundup - New England Area
REGIONAL WEATHER ROUNDUP
NATIONAL WEATHER SERVICE BOSTON/NORTON MA
300 PM EDT SAT MAY 28 2022

NOTE:  "FAIR" INDICATES FEW OR NO CLOUDS BELOW 12,000 FEET WITH NO 
SIGNIFICANT WEATHER AND/OR OBSTRUCTIONS TO VISIBILITY.

MAZALL-282000-
EASTERN MASSACHUSETTS
  
CITY           SKY/WX    TMP DP  RH WIND       PRES   REMARKS
BOSTON         CLOUDY    74  65  73 S15       29.65F                  
BEVERLY        CLOUDY    74  66  76 S12       29.63F                  
LAWRENCE       CLOUDY    78  64  61 SW9       29.65S                  
BEDFORD        LGT RAIN  73  66  78 SW10      29.65R                  
BLUE HILL      NOT AVBL                                               
NORWOOD        CLOUDY    76  66  71 S10G22    29.66S                  
MARSHFIELD     CLOUDY    72  64  78 SW14G23   29.67F                  
PLYMOUTH       CLOUDY    69  63  81 SW14      29.69S                  
TAUNTON        CLOUDY    69  63  81 SW7       29.69S                  
NEW BEDFORD    CLOUDY    68  63  84 SW14      29.70S                  
$$

MAZALL-282000-
CAPE COD AND THE ISLANDS
  
CITY           SKY/WX    TMP DP  RH WIND       PRES   REMARKS
FALMOUTH       CLOUDY    64  63  94 SW14      29.71F FOG              
HYANNIS        CLOUDY    66  63  90 S14       29.69F FOG              
CHATHAM        CLOUDY    63  60  90 SW9G22    29.72F FOG              
PROVINCETOWN   CLOUDY    64  62  93 SW14      29.70F                  
NANTUCKET      CLOUDY    62  60  93 S12       29.74S FOG              
MARTHAS VNYRD  CLOUDY    64  62  93 SW15      29.72F FOG              
$$
 
MAZALL-282000-
CENTRAL AND WESTERN MASSACHUSETTS
  
CITY           SKY/WX    TMP DP  RH WIND       PRES   REMARKS
WORCESTER      HVY RAIN  65  61  87 W9G23     29.71R FOG              
FITCHBURG      CLOUDY    71  57  61 W10       29.67R                  
ORANGE         LGT RAIN  67  64  90 S7        29.69R                  
SPRINGFIELD    TSTM      64  64 100 NE6       29.70S                  
WESTFIELD      TSTM      66  63  90 NE5       29.70R                  
NORTH ADAMS    CLOUDY    72  61  68 W10       29.69F                  
PITTSFIELD     CLOUDY    64  60  87 SW3       29.71F                  
$$
 
RIZALL-282000-
RHODE ISLAND
  
CITY           SKY/WX    TMP DP  RH WIND       PRES   REMARKS
PROVIDENCE     CLOUDY    71  64  78 SW13      29.70R                  
NEWPORT        CLOUDY    63  61  93 VRB6      29.72R                  
BLOCK ISLAND   LGT RAIN  59  57  93 SW16      29.74R VSB 1/2          
SMITHFIELD     CLOUDY    69  64  84 VRB3      29.70S                  
WESTERLY       CLOUDY    66  62  87 SW7       29.72R                  
$$
 
CTZALL-282000-
CONNECTICUT
  
CITY           SKY/WX    TMP DP  RH WIND       PRES   REMARKS
BRADLEY INTL   TSTM      67  64  90 SW9       29.71R FOG              
HARTFORD       TSTM      67  64  90 VRB5      29.70R FOG              
BRIDGEPORT     LGT RAIN  66  62  87 W6        29.71R                  
DANBURY        LGT RAIN  65  60  84 W5        29.76R                  
GROTON         CLOUDY    69  63  81 SW7       29.70F HAZE             
NEW HAVEN      LGT RAIN  68  64  87 N7        29.71S FOG              
CHESTER        CLOUDY    72  66  83 SW8       29.72S                  
MERIDEN        PTSUNNY   67  62  84 VRB3      29.71R                  
WILLIMANTIC    CLOUDY    73  63  70 S12G20    29.69S                  
OXFORD         LGT RAIN  64  63  94 SW5       29.75S                  
$$

MEZ002-015-021-024-NHZ003-005-008-011-012-014-VTZ005-008-282000-
NORTHERN NEW ENGLAND
  
CITY           SKY/WX    TMP DP  RH WIND       PRES   REMARKS
PORTLAND ME    CLOUDY    70  62  76 S13G21    29.60F                  
BANGOR ME      CLOUDY    74  64  71 S16       29.58S                  
CONCORD NH     CLOUDY    76  62  62 SW6       29.63S                  
MANCHESTER NH  CLOUDY    71  64  78 S6        29.63S THUNDER          
NASHUA NH      CLOUDY    67  67 100 SW3       29.65S                  
PORTSMOUTH NH  PTSUNNY   77  65  66 S7        29.63S                  
JAFFREY NH     LGT RAIN  67  62  84 S7        29.70R                  
KEENE NH       PTSUNNY   71  65  81 S9        29.67S                  
BURLINGTON VT  PTSUNNY   67  55  65 N10       29.74S                  
MT. WASHINGTON LGT RAIN  46  46 100 W35G41      N/A  VSB 0            
$$

NYZ052-076-282000-
EASTERN NEW YORK
  
CITY           SKY/WX    TMP DP  RH WIND       PRES   REMARKS
ALBANY         PTSUNNY   78  59  51 NW10      29.68F                  
NEW YORK CITY  PTSUNNY   70  60  70 NW7       29.74R                  
$$
 
ANZALL-282000-
MARINE OBSERVATIONS
  
STATION/POSITION TIME  TEMP    WIND        PRES    VSBY  WAVE
                       AIR SEA DIR/SP/G                  HT/PER
                 (UTC) (F)     (DEG/KT/KT) (MB)    (MI)  (FT/S)
BOSTON BUOY      1840      56  180/  8/  8 1004.8F
BUZZARDS BAY     1800   58     210/ 14/ 15 1006.8F
NANTUCKET SOUND  1840   61 58  220/ 16/ 17 1006.2F
MASS BAY-STELLWA NOT AVBL
ISLE OF SHOALS   1800   68     180/ 18/ 20 1002.9F
S OF BLOCK IS    1826      58                N/A           5/ 7
$$

......................KEY.........................
  SKY/WX - SKY CONDITION/PRESENT WEATHER
  TMP    - TEMPERATURE IN FAHRENHEIT
  DWPT   - DEWPOINT IN FAHRENHEIT
  RH     - RELATIVE HUMIDITY IN PERCENT
  WIND   - DIRECTION AND SPEED IN MPH
  PRES   - MEAN SEA LEVEL PRESSURE IN INCHES OF HG
  WCI    - WIND CHILL INDEX
  VSB    - VISIBILITY IN MILES
  HX     - HEAT INDEX
  TC     - TEMPERATURE IN CELSIUS
  VRB    - VARIABLE WIND DIRECTION
  N/A    - NOT AVAILABLE